This is the latest recevied weather packets stored in our database for station/object XW7RMR. If no packets are shown the sender has not sent any weather packets the latest 10 day(s).
| Time | Temp. | Humidity | Pressure | Rain* | Wind** | Luminosity | Snow |
|---|---|---|---|---|---|---|---|
| 1777929634 | 20.56° C | 64% | 1011.1 hPa | 0 mm | - | 795 W/m² | - |
| 1777929331 | 20.56° C | 64% | 1011.2 hPa | 0 mm | - | 789 W/m² | - |
| 1777929028 | 21.67° C | 60% | 1011.4 hPa | 0 mm | - | 792 W/m² | - |
| 1777928725 | 20.56° C | 62% | 1011.3 hPa | 0 mm | - | 807 W/m² | - |
| 1777928422 | 20° C | 64% | 1011.6 hPa | 0 mm | - | 812 W/m² | - |
| 1777928120 | 20° C | 65% | 1011.6 hPa | 0 mm | - | 813 W/m² | - |
| 1777927818 | 20° C | 66% | 1011.6 hPa | 0 mm | - | 816 W/m² | - |
| 1777927515 | 20.56° C | 64% | 1011.6 hPa | 0 mm | - | 816 W/m² | - |
| 1777927214 | 20° C | 64% | 1011.7 hPa | 0 mm | - | 818 W/m² | - |
| 1777926912 | 20° C | 63% | 1011.7 hPa | 0 mm | - | 828 W/m² | - |
| 1777926609 | 20.56° C | 63% | 1011.9 hPa | 0 mm | - | 827 W/m² | - |
| 1777926304 | 20° C | 63% | 1011.8 hPa | 0 mm | - | 834 W/m² | - |
| 1777926001 | 20° C | 64% | 1012 hPa | 0 mm | - | 840 W/m² | - |
| 1777925698 | 20° C | 65% | 1012.1 hPa | 0 mm | - | 836 W/m² | - |
| 1777925396 | 18.33° C | 68% | 1012 hPa | 0 mm | - | 837 W/m² | - |
| 1777925092 | 18.89° C | 68% | 1012.2 hPa | 0 mm | - | 837 W/m² | - |
| 1777924789 | 18.33° C | 69% | 1012.2 hPa | 0 mm | - | 822 W/m² | - |
| 1777924485 | 18.89° C | 67% | 1012.1 hPa | 0 mm | - | 841 W/m² | - |
| 1777924182 | 17.78° C | 70% | 1012.1 hPa | 0 mm | - | 888 W/m² | - |
| 1777923878 | 18.89° C | 69% | 1012 hPa | 0 mm | - | 899 W/m² | - |
| 1777923574 | 18.89° C | 64% | 1012.1 hPa | 0 mm | - | 880 W/m² | - |
| 1777923271 | 18.89° C | 67% | 1012.2 hPa | 0 mm | - | 977 W/m² | - |
| 1777922970 | 17.78° C | 71% | 1012.3 hPa | 0 mm | - | 884 W/m² | - |
| 1777922667 | 17.22° C | 72% | 1012.2 hPa | 0 mm | - | 394 W/m² | - |
| 1777922366 | 17.22° C | 70% | 1012.5 hPa | 0 mm | - | 464 W/m² | - |
* Rain latest hour (hover to see other rain measurements)
** Current wind speed in m/s (hover to see current wind gust speed)